Year,Month,Day,Hour,Minute,Value (Times are PST for temperature in C)
2017,05,20,00,00,14.20
2017,05,20,00,01,14.20
2017,05,20,00,02,14.20
2017,05,20,00,03,14.10
2017,05,20,00,04,14.10
2017,05,20,00,05,14.10
2017,05,20,00,06,14.00
2017,05,20,00,07,14.00
2017,05,20,00,08,14.00
2017,05,20,00,09,13.90
2017,05,20,00,10,13.90
2017,05,20,00,11,13.90
2017,05,20,00,12,13.80
2017,05,20,00,13,13.80
2017,05,20,00,14,13.80
2017,05,20,00,15,13.80
2017,05,20,00,16,13.80
2017,05,20,00,17,13.70
2017,05,20,00,18,13.70
2017,05,20,00,19,13.70
2017,05,20,00,20,13.70
2017,05,20,00,21,13.60
2017,05,20,00,22,13.60
2017,05,20,00,23,13.60
2017,05,20,00,24,13.60
2017,05,20,00,25,13.60
2017,05,20,00,26,13.50
2017,05,20,00,27,13.50
2017,05,20,00,28,13.50
2017,05,20,00,29,13.40
2017,05,20,00,30,13.40
2017,05,20,00,31,13.40
2017,05,20,00,32,13.40
2017,05,20,00,33,13.40
2017,05,20,00,34,13.30
2017,05,20,00,35,13.30
2017,05,20,00,36,13.30
2017,05,20,00,37,13.30
2017,05,20,00,38,13.30
2017,05,20,00,39,13.30
2017,05,20,00,40,13.20
2017,05,20,00,41,13.20
2017,05,20,00,42,13.30
2017,05,20,00,43,13.30
2017,05,20,00,44,13.20
2017,05,20,00,45,13.30
2017,05,20,00,46,13.20
2017,05,20,00,47,13.20
2017,05,20,00,48,13.20
2017,05,20,00,49,13.20
2017,05,20,00,50,13.20
2017,05,20,00,51,13.20
2017,05,20,00,52,13.20
2017,05,20,00,53,13.20
2017,05,20,00,54,13.20
2017,05,20,00,55,13.20
2017,05,20,00,56,13.20
2017,05,20,00,57,13.20
2017,05,20,00,58,13.20
2017,05,20,00,59,13.20
2017,05,20,01,00,13.30
2017,05,20,01,01,13.30
2017,05,20,01,02,13.30
2017,05,20,01,03,13.30
2017,05,20,01,04,13.30
2017,05,20,01,05,13.30
2017,05,20,01,06,13.30
2017,05,20,01,07,13.30
2017,05,20,01,08,13.30
2017,05,20,01,09,13.30
2017,05,20,01,10,13.30
2017,05,20,01,11,13.30
2017,05,20,01,12,13.30
2017,05,20,01,13,13.30
2017,05,20,01,14,13.30
2017,05,20,01,15,13.30
2017,05,20,01,16,13.30
2017,05,20,01,17,13.30
2017,05,20,01,18,13.20
2017,05,20,01,19,13.20
2017,05,20,01,20,13.20
2017,05,20,01,21,13.20
2017,05,20,01,22,13.20
2017,05,20,01,23,13.20
2017,05,20,01,24,13.20
2017,05,20,01,25,13.20
2017,05,20,01,26,13.20
2017,05,20,01,27,13.10
2017,05,20,01,28,13.10
2017,05,20,01,29,13.10
2017,05,20,01,30,13.10
2017,05,20,01,31,13.10
2017,05,20,01,32,13.10
2017,05,20,01,33,13.10
2017,05,20,01,34,13.10
2017,05,20,01,35,13.10
2017,05,20,01,36,13.10
2017,05,20,01,37,13.10
2017,05,20,01,38,13.10
2017,05,20,01,39,13.10
2017,05,20,01,40,13.10
2017,05,20,01,41,13.10
2017,05,20,01,42,13.10
2017,05,20,01,43,13.10
2017,05,20,01,44,13.10
2017,05,20,01,45,13.10
2017,05,20,01,46,13.00
2017,05,20,01,47,13.00
2017,05,20,01,48,13.00
2017,05,20,01,49,13.00
2017,05,20,01,50,13.00
2017,05,20,01,51,13.00
2017,05,20,01,52,12.90
2017,05,20,01,53,12.90
2017,05,20,01,54,12.90
2017,05,20,01,55,12.90
2017,05,20,01,56,12.90
2017,05,20,01,57,12.90
2017,05,20,01,58,12.90
2017,05,20,01,59,12.90
2017,05,20,02,00,12.90
2017,05,20,02,01,12.90
2017,05,20,02,02,12.80
2017,05,20,02,03,12.80
2017,05,20,02,04,12.80
2017,05,20,02,05,12.80
2017,05,20,02,06,12.80
2017,05,20,02,07,12.80
2017,05,20,02,08,12.80
2017,05,20,02,09,12.80
2017,05,20,02,10,12.80
2017,05,20,02,11,12.70
2017,05,20,02,12,12.70
2017,05,20,02,13,12.70
2017,05,20,02,14,12.70
2017,05,20,02,15,12.70
2017,05,20,02,16,12.70
2017,05,20,02,17,12.60
2017,05,20,02,18,12.60
2017,05,20,02,19,12.60
2017,05,20,02,20,12.60
2017,05,20,02,21,12.60
2017,05,20,02,22,12.50
2017,05,20,02,23,12.50
2017,05,20,02,24,12.50
2017,05,20,02,25,12.40
2017,05,20,02,26,12.40
2017,05,20,02,27,12.40
2017,05,20,02,28,12.40
2017,05,20,02,29,12.30
2017,05,20,02,30,12.30
2017,05,20,02,31,12.30
2017,05,20,02,32,12.30
2017,05,20,02,33,12.30
2017,05,20,02,34,12.30
2017,05,20,02,35,12.20
2017,05,20,02,36,12.20
2017,05,20,02,37,12.20
2017,05,20,02,38,12.20
2017,05,20,02,39,12.20
2017,05,20,02,40,12.20
2017,05,20,02,41,12.10
2017,05,20,02,42,12.10
2017,05,20,02,43,12.10
2017,05,20,02,44,12.10
2017,05,20,02,45,12.10
2017,05,20,02,46,12.00
2017,05,20,02,47,12.00
2017,05,20,02,48,12.00
2017,05,20,02,49,12.00
2017,05,20,02,50,12.00
2017,05,20,02,51,12.00
2017,05,20,02,52,11.90
2017,05,20,02,53,11.90
2017,05,20,02,54,11.90
2017,05,20,02,55,11.90
2017,05,20,02,56,11.90
2017,05,20,02,57,11.90
2017,05,20,02,58,11.90
2017,05,20,02,59,11.90
2017,05,20,03,00,11.90
2017,05,20,03,01,11.90
2017,05,20,03,02,11.90
2017,05,20,03,03,11.90
2017,05,20,03,04,11.90
2017,05,20,03,05,11.90
2017,05,20,03,06,11.90
2017,05,20,03,07,11.90
2017,05,20,03,08,11.90
2017,05,20,03,09,11.90
2017,05,20,03,10,11.90
2017,05,20,03,11,11.90
2017,05,20,03,12,11.90
2017,05,20,03,13,12.00
2017,05,20,03,14,12.00
2017,05,20,03,15,12.00
2017,05,20,03,16,12.00
2017,05,20,03,17,12.00
2017,05,20,03,18,12.00
2017,05,20,03,19,12.00
2017,05,20,03,20,12.10
2017,05,20,03,21,12.10
2017,05,20,03,22,12.10
2017,05,20,03,23,12.10
2017,05,20,03,24,12.10
2017,05,20,03,25,12.10
2017,05,20,03,26,12.10
2017,05,20,03,27,12.10
2017,05,20,03,28,12.10
2017,05,20,03,29,12.10
2017,05,20,03,30,12.10
2017,05,20,03,31,12.10
2017,05,20,03,32,12.10
2017,05,20,03,33,12.10
2017,05,20,03,34,12.10
2017,05,20,03,35,12.10
2017,05,20,03,36,12.10
2017,05,20,03,37,12.10
2017,05,20,03,38,12.10
2017,05,20,03,39,12.10
2017,05,20,03,40,12.10
2017,05,20,03,41,12.10
2017,05,20,03,42,12.10
2017,05,20,03,43,12.10
2017,05,20,03,44,12.10
2017,05,20,03,45,12.10
2017,05,20,03,46,12.10
2017,05,20,03,47,12.00
2017,05,20,03,48,12.00
2017,05,20,03,49,12.00
2017,05,20,03,50,12.00
2017,05,20,03,51,11.90
2017,05,20,03,52,11.90
2017,05,20,03,53,11.90
2017,05,20,03,54,11.90
2017,05,20,03,55,11.90
2017,05,20,03,56,11.90
2017,05,20,03,57,11.90
2017,05,20,03,58,11.90
2017,05,20,03,59,11.90
2017,05,20,04,00,11.90
2017,05,20,04,01,11.90
2017,05,20,04,02,11.80
2017,05,20,04,03,11.80
2017,05,20,04,04,11.80
2017,05,20,04,05,11.80
2017,05,20,04,06,11.80
2017,05,20,04,07,11.80
2017,05,20,04,08,11.70
2017,05,20,04,09,11.70
2017,05,20,04,10,11.70
2017,05,20,04,11,11.70
2017,05,20,04,12,11.70
2017,05,20,04,13,11.70
2017,05,20,04,14,11.60
2017,05,20,04,15,11.60
2017,05,20,04,16,11.60
2017,05,20,04,17,11.60
2017,05,20,04,18,11.60
2017,05,20,04,19,11.60
2017,05,20,04,20,11.60
2017,05,20,04,21,11.60
2017,05,20,04,22,11.50
2017,05,20,04,23,11.50
2017,05,20,04,24,11.50
2017,05,20,04,25,11.50
2017,05,20,04,26,11.50
2017,05,20,04,27,11.50
2017,05,20,04,28,11.40
2017,05,20,04,29,11.40
2017,05,20,04,30,11.40
2017,05,20,04,31,11.40
2017,05,20,04,32,11.40
2017,05,20,04,33,11.40
2017,05,20,04,34,11.40
2017,05,20,04,35,11.30
2017,05,20,04,36,11.30
2017,05,20,04,37,11.30
2017,05,20,04,38,11.30
2017,05,20,04,39,11.30
2017,05,20,04,40,11.30
2017,05,20,04,41,11.30
2017,05,20,04,42,11.30
2017,05,20,04,43,11.20
2017,05,20,04,44,11.20
2017,05,20,04,45,11.20
2017,05,20,04,46,11.20
2017,05,20,04,47,11.20
2017,05,20,04,48,11.20
2017,05,20,04,49,11.20
2017,05,20,04,50,11.20
2017,05,20,04,51,11.10
2017,05,20,04,52,11.10
2017,05,20,04,53,11.10
2017,05,20,04,54,11.10
2017,05,20,04,55,11.10
2017,05,20,04,56,11.10
2017,05,20,04,57,11.00
2017,05,20,04,58,11.00
2017,05,20,04,59,11.00
2017,05,20,05,00,10.90
2017,05,20,05,01,10.90
2017,05,20,05,02,10.90
2017,05,20,05,03,10.90
2017,05,20,05,04,10.90
2017,05,20,05,05,10.90
2017,05,20,05,06,10.90
2017,05,20,05,07,10.80
2017,05,20,05,08,10.80
2017,05,20,05,09,10.80
2017,05,20,05,10,10.80
2017,05,20,05,11,10.80
2017,05,20,05,12,10.80
2017,05,20,05,13,10.80
2017,05,20,05,14,10.80
2017,05,20,05,15,10.80
2017,05,20,05,16,10.80
2017,05,20,05,17,10.80
2017,05,20,05,18,10.80
2017,05,20,05,19,10.70
2017,05,20,05,20,10.70
2017,05,20,05,21,10.70
2017,05,20,05,22,10.70
2017,05,20,05,23,10.70
2017,05,20,05,24,10.70
2017,05,20,05,25,10.70
2017,05,20,05,26,10.70
2017,05,20,05,27,10.70
2017,05,20,05,28,10.60
2017,05,20,05,29,10.60
2017,05,20,05,30,10.60
2017,05,20,05,31,10.60
2017,05,20,05,32,10.60
2017,05,20,05,33,10.60
2017,05,20,05,34,10.60
2017,05,20,05,35,10.60
2017,05,20,05,36,10.60
2017,05,20,05,37,10.60
2017,05,20,05,38,10.60
2017,05,20,05,39,10.60
2017,05,20,05,40,10.60
2017,05,20,05,41,10.60
2017,05,20,05,42,10.60
2017,05,20,05,43,10.60
2017,05,20,05,44,10.60
2017,05,20,05,45,10.60
2017,05,20,05,46,10.60
2017,05,20,05,47,10.60
2017,05,20,05,48,10.60
2017,05,20,05,49,10.60
2017,05,20,05,50,10.60
2017,05,20,05,51,10.60
2017,05,20,05,52,10.60
2017,05,20,05,53,10.60
2017,05,20,05,54,10.50
2017,05,20,05,55,10.50
2017,05,20,05,56,10.50
2017,05,20,05,57,10.50
2017,05,20,05,58,10.50
2017,05,20,05,59,10.50
2017,05,20,06,00,10.50
2017,05,20,06,01,10.50
2017,05,20,06,02,10.50
2017,05,20,06,03,10.50
2017,05,20,06,04,10.50
2017,05,20,06,05,10.50
2017,05,20,06,06,10.50
2017,05,20,06,07,10.50
2017,05,20,06,08,10.50
2017,05,20,06,09,10.50
2017,05,20,06,10,10.60
2017,05,20,06,11,10.60
2017,05,20,06,12,10.60
2017,05,20,06,13,10.60
2017,05,20,06,14,10.60
2017,05,20,06,15,10.60
2017,05,20,06,16,10.60
2017,05,20,06,17,10.60
2017,05,20,06,18,10.60
2017,05,20,06,19,10.60
2017,05,20,06,20,10.60
2017,05,20,06,21,10.60
2017,05,20,06,22,10.60
2017,05,20,06,23,10.60
2017,05,20,06,24,10.60
2017,05,20,06,25,10.50
2017,05,20,06,26,10.60
2017,05,20,06,27,10.50
2017,05,20,06,28,10.50
2017,05,20,06,29,10.60
2017,05,20,06,30,10.50
2017,05,20,06,31,10.50
2017,05,20,06,32,10.50
2017,05,20,06,33,10.50
2017,05,20,06,34,10.50
2017,05,20,06,35,10.60
2017,05,20,06,36,10.60
2017,05,20,06,37,10.60
2017,05,20,06,38,10.60
2017,05,20,06,39,10.60
2017,05,20,06,40,10.60
2017,05,20,06,41,10.60
2017,05,20,06,42,10.60
2017,05,20,06,43,10.60
2017,05,20,06,44,10.60
2017,05,20,06,45,10.60
2017,05,20,06,46,10.60
2017,05,20,06,47,10.60
2017,05,20,06,48,10.60
2017,05,20,06,49,10.60
2017,05,20,06,50,10.60
2017,05,20,06,51,10.60
2017,05,20,06,52,10.60
2017,05,20,06,53,10.60
2017,05,20,06,54,10.60
2017,05,20,06,55,10.70
2017,05,20,06,56,10.70
2017,05,20,06,57,10.70
2017,05,20,06,58,10.70
2017,05,20,06,59,10.70
2017,05,20,07,00,10.70
2017,05,20,07,01,10.70
2017,05,20,07,02,10.80
2017,05,20,07,03,10.80
2017,05,20,07,04,10.80
2017,05,20,07,05,10.90
2017,05,20,07,06,10.90
2017,05,20,07,07,10.90
2017,05,20,07,08,10.90
2017,05,20,07,09,11.00
2017,05,20,07,10,11.00
2017,05,20,07,11,11.00
2017,05,20,07,12,11.10
2017,05,20,07,13,11.10
2017,05,20,07,14,11.20
2017,05,20,07,15,11.20
2017,05,20,07,16,11.30
2017,05,20,07,17,11.30
2017,05,20,07,18,11.30
2017,05,20,07,19,11.40
2017,05,20,07,20,11.40
2017,05,20,07,21,11.40
2017,05,20,07,22,11.40
2017,05,20,07,23,11.50
2017,05,20,07,24,11.50
2017,05,20,07,25,11.50
2017,05,20,07,26,11.60
2017,05,20,07,27,11.60
2017,05,20,07,28,11.60
2017,05,20,07,29,11.60
2017,05,20,07,30,11.60
2017,05,20,07,31,11.70
2017,05,20,07,32,11.70
2017,05,20,07,33,11.70
2017,05,20,07,34,11.80
2017,05,20,07,35,11.80
2017,05,20,07,36,11.80
2017,05,20,07,37,11.80
2017,05,20,07,38,11.90
2017,05,20,07,39,11.90
2017,05,20,07,40,11.90
2017,05,20,07,41,11.90
2017,05,20,07,42,12.00
2017,05,20,07,43,12.00
2017,05,20,07,44,12.10
2017,05,20,07,45,12.10
2017,05,20,07,46,12.10
2017,05,20,07,47,12.20
2017,05,20,07,48,12.20
2017,05,20,07,49,12.30
2017,05,20,07,50,12.30
2017,05,20,07,51,12.40
2017,05,20,07,52,12.40
2017,05,20,07,53,12.50
2017,05,20,07,54,12.50
2017,05,20,07,55,12.60
2017,05,20,07,56,12.60
2017,05,20,07,57,12.70
2017,05,20,07,58,12.70
2017,05,20,07,59,12.80
2017,05,20,08,00,12.80
2017,05,20,08,01,12.90
2017,05,20,08,02,12.90
2017,05,20,08,03,13.00
2017,05,20,08,04,13.00
2017,05,20,08,05,13.10
2017,05,20,08,06,13.10
2017,05,20,08,07,13.20
2017,05,20,08,08,13.20
2017,05,20,08,09,13.30
2017,05,20,08,10,13.30
2017,05,20,08,11,13.40
2017,05,20,08,12,13.40
2017,05,20,08,13,13.50
2017,05,20,08,14,13.50
2017,05,20,08,15,13.60
2017,05,20,08,16,13.60
2017,05,20,08,17,13.60
2017,05,20,08,18,13.70
2017,05,20,08,19,13.70
2017,05,20,08,20,13.80
2017,05,20,08,21,13.80
2017,05,20,08,22,13.90
2017,05,20,08,23,13.90
2017,05,20,08,24,13.90
2017,05,20,08,25,13.90
2017,05,20,08,26,14.00
2017,05,20,08,27,14.10
2017,05,20,08,28,14.10
2017,05,20,08,29,14.10
2017,05,20,08,30,14.10
2017,05,20,08,31,14.20
2017,05,20,08,32,14.20
2017,05,20,08,33,14.30
2017,05,20,08,34,14.30
2017,05,20,08,35,14.30
2017,05,20,08,36,14.40
2017,05,20,08,37,14.40
2017,05,20,08,38,14.40
2017,05,20,08,39,14.40
2017,05,20,08,40,14.50
2017,05,20,08,41,14.50
2017,05,20,08,42,14.50
2017,05,20,08,43,14.60
2017,05,20,08,44,14.60
2017,05,20,08,45,14.60
2017,05,20,08,46,14.60
2017,05,20,08,47,14.60
2017,05,20,08,48,14.60
2017,05,20,08,49,14.70
2017,05,20,08,50,14.70
2017,05,20,08,51,14.70
2017,05,20,08,52,14.70
2017,05,20,08,53,14.80
2017,05,20,08,54,14.80
2017,05,20,08,55,14.90
2017,05,20,08,56,14.90
2017,05,20,08,57,14.90
2017,05,20,08,58,14.90
2017,05,20,08,59,15.00
2017,05,20,09,00,15.00
2017,05,20,09,01,15.00
2017,05,20,09,02,15.10
2017,05,20,09,03,15.20
2017,05,20,09,04,15.20
2017,05,20,09,05,15.20
2017,05,20,09,06,15.20
2017,05,20,09,07,15.30
2017,05,20,09,08,15.30
2017,05,20,09,09,15.30
2017,05,20,09,10,15.40
2017,05,20,09,11,15.40
2017,05,20,09,12,15.50
2017,05,20,09,13,15.60
2017,05,20,09,14,15.60
2017,05,20,09,15,15.70
2017,05,20,09,16,15.80
2017,05,20,09,17,15.90
2017,05,20,09,18,15.90
2017,05,20,09,19,16.00
2017,05,20,09,20,16.10
2017,05,20,09,21,16.20
2017,05,20,09,22,16.20
2017,05,20,09,23,16.20
2017,05,20,09,24,16.20
2017,05,20,09,25,16.20
2017,05,20,09,26,16.20
2017,05,20,09,27,16.30
2017,05,20,09,28,16.30
2017,05,20,09,29,16.30
2017,05,20,09,30,16.30
2017,05,20,09,31,16.40
2017,05,20,09,32,16.40
2017,05,20,09,33,16.40
2017,05,20,09,34,16.50
2017,05,20,09,35,16.50
2017,05,20,09,36,16.50
2017,05,20,09,37,16.50
2017,05,20,09,38,16.60
2017,05,20,09,39,16.60
2017,05,20,09,40,16.70
2017,05,20,09,41,16.70
2017,05,20,09,42,16.70
2017,05,20,09,43,16.70
2017,05,20,09,44,16.80
2017,05,20,09,45,16.80
2017,05,20,09,46,16.80
2017,05,20,09,47,16.90
2017,05,20,09,48,16.90
2017,05,20,09,49,17.00
2017,05,20,09,50,17.00
2017,05,20,09,51,17.10
2017,05,20,09,52,17.10
2017,05,20,09,53,17.20
2017,05,20,09,54,17.30
2017,05,20,09,55,17.30
2017,05,20,09,56,17.40
2017,05,20,09,57,17.40
2017,05,20,09,58,17.40
2017,05,20,09,59,17.50
2017,05,20,10,00,17.60
2017,05,20,10,01,17.70
2017,05,20,10,02,17.70
2017,05,20,10,03,17.70
2017,05,20,10,04,17.80
2017,05,20,10,05,17.90
2017,05,20,10,06,17.90
2017,05,20,10,07,17.90
2017,05,20,10,08,17.90
2017,05,20,10,09,17.90
2017,05,20,10,10,17.90
2017,05,20,10,11,17.80
2017,05,20,10,12,17.90
2017,05,20,10,13,17.90
2017,05,20,10,14,17.90
2017,05,20,10,15,17.80
2017,05,20,10,16,17.80
2017,05,20,10,17,17.70
2017,05,20,10,18,17.60
2017,05,20,10,19,17.50
2017,05,20,10,20,17.50
2017,05,20,10,21,17.40
2017,05,20,10,22,17.30
2017,05,20,10,23,17.30
2017,05,20,10,24,17.20
2017,05,20,10,25,17.30
2017,05,20,10,26,17.30
2017,05,20,10,27,17.30
2017,05,20,10,28,17.30
2017,05,20,10,29,17.40
2017,05,20,10,30,17.40
2017,05,20,10,31,17.40
2017,05,20,10,32,17.40
2017,05,20,10,33,17.40
2017,05,20,10,34,17.40
2017,05,20,10,35,17.40
2017,05,20,10,36,17.40
2017,05,20,10,37,17.50
2017,05,20,10,38,17.40
2017,05,20,10,39,17.40
2017,05,20,10,40,17.50
2017,05,20,10,41,17.50
2017,05,20,10,42,17.50
2017,05,20,10,43,17.60
2017,05,20,10,44,17.60
2017,05,20,10,45,17.60
2017,05,20,10,46,17.70
2017,05,20,10,47,17.70
2017,05,20,10,48,17.70
2017,05,20,10,49,17.80
2017,05,20,10,50,17.90
2017,05,20,10,51,17.90
2017,05,20,10,52,17.90
2017,05,20,10,53,17.90
2017,05,20,10,54,17.80
2017,05,20,10,55,17.80
2017,05,20,10,56,17.70
2017,05,20,10,57,17.70
2017,05,20,10,58,17.70
2017,05,20,10,59,17.60
2017,05,20,11,00,17.60
2017,05,20,11,01,17.50
2017,05,20,11,02,17.50
2017,05,20,11,03,17.40
2017,05,20,11,04,17.40
2017,05,20,11,05,17.30
2017,05,20,11,06,17.30
2017,05,20,11,07,17.40
2017,05,20,11,08,17.40
2017,05,20,11,09,17.40
2017,05,20,11,10,17.50
2017,05,20,11,11,17.60
2017,05,20,11,12,17.60
2017,05,20,11,13,17.60
2017,05,20,11,14,17.60
2017,05,20,11,15,17.60
2017,05,20,11,16,17.60
2017,05,20,11,17,17.60
2017,05,20,11,18,17.60
2017,05,20,11,19,17.50
2017,05,20,11,20,17.50
2017,05,20,11,21,17.50
2017,05,20,11,22,17.50
2017,05,20,11,23,17.60
2017,05,20,11,24,17.60
2017,05,20,11,25,17.60
2017,05,20,11,26,17.70
2017,05,20,11,27,17.70
2017,05,20,11,28,17.80
2017,05,20,11,29,17.80
2017,05,20,11,30,17.90
2017,05,20,11,31,17.90
2017,05,20,11,32,17.90
2017,05,20,11,33,17.90
2017,05,20,11,34,18.00
2017,05,20,11,35,18.00
2017,05,20,11,36,18.10
2017,05,20,11,37,18.10
2017,05,20,11,38,18.10
2017,05,20,11,39,18.20
2017,05,20,11,40,18.20
2017,05,20,11,41,18.40
2017,05,20,11,42,18.40
2017,05,20,11,43,18.40
2017,05,20,11,44,18.40
2017,05,20,11,45,18.40
2017,05,20,11,46,18.40
2017,05,20,11,47,18.50
2017,05,20,11,48,18.50
2017,05,20,11,49,18.50
2017,05,20,11,50,18.60
2017,05,20,11,51,18.60
2017,05,20,11,52,18.60
2017,05,20,11,53,18.60
2017,05,20,11,54,18.60
2017,05,20,11,55,18.60
2017,05,20,11,56,18.60
2017,05,20,11,57,18.70
2017,05,20,11,58,18.70
2017,05,20,11,59,18.70
2017,05,20,12,00,18.70
2017,05,20,12,01,18.80
2017,05,20,12,02,18.80
2017,05,20,12,03,18.70
2017,05,20,12,04,18.70
2017,05,20,12,05,18.70
2017,05,20,12,06,18.80
2017,05,20,12,07,18.80
2017,05,20,12,08,18.80
2017,05,20,12,09,18.70
2017,05,20,12,10,18.60
2017,05,20,12,11,18.50
2017,05,20,12,12,18.40
2017,05,20,12,13,18.40
2017,05,20,12,14,18.40
2017,05,20,12,15,18.30
2017,05,20,12,16,18.30
2017,05,20,12,17,18.30
2017,05,20,12,18,18.20
2017,05,20,12,19,18.30
2017,05,20,12,20,18.30
2017,05,20,12,21,18.40
2017,05,20,12,22,18.60
2017,05,20,12,23,18.70
2017,05,20,12,24,18.70
2017,05,20,12,25,18.60
2017,05,20,12,26,18.60
2017,05,20,12,27,18.60
2017,05,20,12,28,18.60
2017,05,20,12,29,18.60
2017,05,20,12,30,18.70
2017,05,20,12,31,18.70
2017,05,20,12,32,18.80
2017,05,20,12,33,18.80
2017,05,20,12,34,18.80
2017,05,20,12,35,18.80
2017,05,20,12,36,18.80
2017,05,20,12,37,18.80
2017,05,20,12,38,18.80
2017,05,20,12,39,18.70
2017,05,20,12,40,18.60
2017,05,20,12,41,18.60
2017,05,20,12,42,18.60
2017,05,20,12,43,18.70
2017,05,20,12,44,18.80
2017,05,20,12,45,18.80
2017,05,20,12,46,18.80
2017,05,20,12,47,18.70
2017,05,20,12,48,18.70
2017,05,20,12,49,18.70
2017,05,20,12,50,18.70
2017,05,20,12,51,18.60
2017,05,20,12,52,18.50
2017,05,20,12,53,18.40
2017,05,20,12,54,18.30
2017,05,20,12,55,18.30
2017,05,20,12,56,18.20
2017,05,20,12,57,18.20
2017,05,20,12,58,18.30
2017,05,20,12,59,18.20
2017,05,20,13,00,18.20
2017,05,20,13,01,18.20
2017,05,20,13,02,18.30
2017,05,20,13,03,18.40
2017,05,20,13,04,18.40
2017,05,20,13,05,18.40
2017,05,20,13,06,18.40
2017,05,20,13,07,18.40
2017,05,20,13,08,18.30
2017,05,20,13,09,18.30
2017,05,20,13,10,18.30
2017,05,20,13,11,18.30
2017,05,20,13,12,18.20
2017,05,20,13,13,18.20
2017,05,20,13,14,18.10
2017,05,20,13,15,18.10
2017,05,20,13,16,18.00
2017,05,20,13,17,18.00
2017,05,20,13,18,17.90
2017,05,20,13,19,17.90
2017,05,20,13,20,17.80
2017,05,20,13,21,17.90
2017,05,20,13,22,17.90
2017,05,20,13,23,18.00
2017,05,20,13,24,18.10
2017,05,20,13,25,18.20
2017,05,20,13,26,18.20
2017,05,20,13,27,18.30
2017,05,20,13,28,18.20
2017,05,20,13,29,18.30
2017,05,20,13,30,18.30
2017,05,20,13,31,18.30
2017,05,20,13,32,18.30
2017,05,20,13,33,18.30
2017,05,20,13,34,18.30
2017,05,20,13,35,18.30
2017,05,20,13,36,18.30
2017,05,20,13,37,18.20
2017,05,20,13,38,18.20
2017,05,20,13,39,18.10
2017,05,20,13,40,18.10
2017,05,20,13,41,18.00
2017,05,20,13,42,17.90
2017,05,20,13,43,17.90
2017,05,20,13,44,17.90
2017,05,20,13,45,17.90
2017,05,20,13,46,17.80
2017,05,20,13,47,17.70
2017,05,20,13,48,17.70
2017,05,20,13,49,17.80
2017,05,20,13,50,17.80
2017,05,20,13,51,17.90
2017,05,20,13,52,18.00
2017,05,20,13,53,18.10
2017,05,20,13,54,18.20
2017,05,20,13,55,18.30
2017,05,20,13,56,18.40
2017,05,20,13,57,18.50
2017,05,20,13,58,18.60
2017,05,20,13,59,18.70
2017,05,20,14,00,18.70
2017,05,20,14,01,18.70
2017,05,20,14,02,18.70
2017,05,20,14,03,18.70
2017,05,20,14,04,18.70
2017,05,20,14,05,18.70
2017,05,20,14,06,18.70
2017,05,20,14,07,18.70
2017,05,20,14,08,18.70
2017,05,20,14,09,18.80
2017,05,20,14,10,18.80
2017,05,20,14,11,18.80
2017,05,20,14,12,18.70
2017,05,20,14,13,18.70
2017,05,20,14,14,18.60
2017,05,20,14,15,18.60
2017,05,20,14,16,18.70
2017,05,20,14,17,18.70
2017,05,20,14,18,18.70
2017,05,20,14,19,18.70
2017,05,20,14,20,18.70
2017,05,20,14,21,18.80
2017,05,20,14,22,18.80
2017,05,20,14,23,18.90
2017,05,20,14,24,18.90
2017,05,20,14,25,19.00
2017,05,20,14,26,19.10
2017,05,20,14,27,19.10
2017,05,20,14,28,19.10
2017,05,20,14,29,19.20
2017,05,20,14,30,19.20
2017,05,20,14,31,19.10
2017,05,20,14,32,19.10
2017,05,20,14,33,19.10
2017,05,20,14,34,19.10
2017,05,20,14,35,19.00
2017,05,20,14,36,19.10
2017,05,20,14,37,19.10
2017,05,20,14,38,19.20
2017,05,20,14,39,19.20
2017,05,20,14,40,19.30
2017,05,20,14,41,19.30
2017,05,20,14,42,19.30
2017,05,20,14,43,19.30
2017,05,20,14,44,19.30
2017,05,20,14,45,19.20
2017,05,20,14,46,19.20
2017,05,20,14,47,19.10
2017,05,20,14,48,19.00
2017,05,20,14,49,19.00
2017,05,20,14,50,19.00
2017,05,20,14,51,19.00
2017,05,20,14,52,19.00
2017,05,20,14,53,19.10
2017,05,20,14,54,19.10
2017,05,20,14,55,19.10
2017,05,20,14,56,19.10
2017,05,20,14,57,19.20
2017,05,20,14,58,19.20
2017,05,20,14,59,19.20
2017,05,20,15,00,19.20
2017,05,20,15,01,19.20
2017,05,20,15,02,19.20
2017,05,20,15,03,19.20
2017,05,20,15,04,19.20
2017,05,20,15,05,19.10
2017,05,20,15,06,19.10
2017,05,20,15,07,19.10
2017,05,20,15,08,19.10
2017,05,20,15,09,19.10
2017,05,20,15,10,19.10
2017,05,20,15,11,19.10
2017,05,20,15,12,19.10
2017,05,20,15,13,19.10
2017,05,20,15,14,19.10
2017,05,20,15,15,19.20
2017,05,20,15,16,19.30
2017,05,20,15,17,19.40
2017,05,20,15,18,19.50
2017,05,20,15,19,19.60
2017,05,20,15,20,19.70
2017,05,20,15,21,19.70
2017,05,20,15,22,19.80
2017,05,20,15,23,19.90
2017,05,20,15,24,19.90
2017,05,20,15,25,19.90
2017,05,20,15,26,20.00
2017,05,20,15,27,20.00
2017,05,20,15,28,20.10
2017,05,20,15,29,20.20
2017,05,20,15,30,20.20
2017,05,20,15,31,20.20
2017,05,20,15,32,20.20
2017,05,20,15,33,20.20
2017,05,20,15,34,20.30
2017,05,20,15,35,20.40
2017,05,20,15,36,20.40
2017,05,20,15,37,20.40
2017,05,20,15,38,20.50
2017,05,20,15,39,20.50
2017,05,20,15,40,20.60
2017,05,20,15,41,20.70
2017,05,20,15,42,20.90
2017,05,20,15,43,21.10
2017,05,20,15,44,21.10
2017,05,20,15,45,21.20
2017,05,20,15,46,21.30
2017,05,20,15,47,21.40
2017,05,20,15,48,21.40
2017,05,20,15,49,21.30
2017,05,20,15,50,21.40
2017,05,20,15,51,21.50
2017,05,20,15,52,21.60
2017,05,20,15,53,21.70
2017,05,20,15,54,21.80
2017,05,20,15,55,21.80
2017,05,20,15,56,21.80
2017,05,20,15,57,21.80
2017,05,20,15,58,21.90
2017,05,20,15,59,21.90
2017,05,20,16,00,22.00
2017,05,20,16,01,22.10
2017,05,20,16,02,22.20
2017,05,20,16,03,22.20
2017,05,20,16,04,22.20
2017,05,20,16,05,22.20
2017,05,20,16,06,22.20
2017,05,20,16,07,22.20
2017,05,20,16,08,22.20
2017,05,20,16,09,22.10
2017,05,20,16,10,22.10
2017,05,20,16,11,22.10
2017,05,20,16,12,22.10
2017,05,20,16,13,22.10
2017,05,20,16,14,22.10
2017,05,20,16,15,22.10
2017,05,20,16,16,22.00
2017,05,20,16,17,22.00
2017,05,20,16,18,21.90
2017,05,20,16,19,21.90
2017,05,20,16,20,21.90
2017,05,20,16,21,21.90
2017,05,20,16,22,21.90
2017,05,20,16,23,21.90
2017,05,20,16,24,22.00
2017,05,20,16,25,22.00
2017,05,20,16,26,22.10
2017,05,20,16,27,22.10
2017,05,20,16,28,22.10
2017,05,20,16,29,22.10
2017,05,20,16,30,22.10
2017,05,20,16,31,22.10
2017,05,20,16,32,22.00
2017,05,20,16,33,21.90
2017,05,20,16,34,21.90
2017,05,20,16,35,21.90
2017,05,20,16,36,21.90
2017,05,20,16,37,21.80
2017,05,20,16,38,21.90
2017,05,20,16,39,21.90
2017,05,20,16,40,21.90
2017,05,20,16,41,21.90
2017,05,20,16,42,21.90
2017,05,20,16,43,21.90
2017,05,20,16,44,21.90
2017,05,20,16,45,21.90
2017,05,20,16,46,21.90
2017,05,20,16,47,21.90
2017,05,20,16,48,21.90
2017,05,20,16,49,21.90
2017,05,20,16,50,21.90
2017,05,20,16,51,21.90
2017,05,20,16,52,21.90
2017,05,20,16,53,21.90
2017,05,20,16,54,21.90
2017,05,20,16,55,21.90
2017,05,20,16,56,21.90
2017,05,20,16,57,21.90
2017,05,20,16,58,21.90
2017,05,20,16,59,21.90
2017,05,20,17,00,21.90
2017,05,20,17,01,21.90
2017,05,20,17,02,21.90
2017,05,20,17,03,21.90
2017,05,20,17,04,22.00
2017,05,20,17,05,22.00
2017,05,20,17,06,22.10
2017,05,20,17,07,22.10
2017,05,20,17,08,22.20
2017,05,20,17,09,22.10
2017,05,20,17,10,22.10
2017,05,20,17,11,22.20
2017,05,20,17,12,22.20
2017,05,20,17,13,22.20
2017,05,20,17,14,22.20
2017,05,20,17,15,22.20
2017,05,20,17,16,22.20
2017,05,20,17,17,22.10
2017,05,20,17,18,22.10
2017,05,20,17,19,22.10